Location: Carrières
(48.9495°N, 2.0407°E)
Time: 21:15:50
(UTC+00:00)

Transit 2A Rocket - Pass Details

Date: 24 April 2024
Orbit: 585 x 908 km, 66.7° (Epoch: 18 May)

Event Time Altitude Azimuth Distance (km) Brightness Sun altitude
Rises 20:42:04 0° 311° (NW) 3,359 10.2 -15.3°
Reaches altitude 10° 20:45:22 10° 291° (WNW) 2,478 8.7 -15.7°
Maximum altitude 20:48:45 16° 255° (WSW) 2,111 7.6 -16.1°
Drops below altitude 10° 20:52:14 10° 218° (SW) 2,554 7.6 -16.5°
Sets 20:55:44 0° 199° (SSW) 3,513 8.2 -16.9°
